Wind_Speed
16 16 15 14 14 13 15 16 16 18 19 20 20 20 20 20 19 18 20 21 22 22 23 24 24 25 27 30 32 33 34 34 32 27 23 22 19 18 20 20 20 20 19 19 19 19 19 19 19 20 20 20 21 22 23 23 25 26 26 28 28 27 27 24 16 13 20 24 25 27 25 22 22 24 25 26 27 29 33 35 36 37 39 41 42
16 16 16 16 16 15 16 17 18 19 20 20 20 20 20 20 21 21 21 21 21 21 21 22 21 21 22 24 27 30 31 32 31 27 24 23 21 19 20 20 21 21 20 20 21 20 20 20 20 20 21 20 21 22 22 23 24 25 26 26 26 26 27 27 22 16 18 21 22 23 23 21 21 24 26 27 28 28 29 32 34 35 38 40 42
17 17 17 17 17 17 17 18 18 20 20 20 20 19 19 19 21 21 20 20 21 21 21 21 19 18 19 20 21 24 26 29 30 28 26 25 23 21 21 20 20 20 20 21 22 21 21 21 21 21 21 21 21 21 22 23 24 24 25 25 25 27 27 26 24 21 20 23 23 22 22 23 25 27 28 27 27 28 30 31 32 34 36 38 41
18 18 19 18 18 18 18 18 18 19 19 19 19 18 17 17 18 19 19 19 20 20 21 21 18 17 18 19 19 20 22 26 28 29 27 26 24 23 22 20 19 19 19 20 21 22 22 22 22 21 21 22 22 22 23 24 25 24 25 25 26 27 28 26 26 25 24 23 23 23 22 24 27 29 29 28 26 29 31 31 31 33 35 37 39
19 19 19 18 18 18 18 18 18 18 18 18 17 16 16 16 16 17 17 18 19 20 21 21 19 17 16 18 19 19 21 24 27 28 27 25 24 24 23 22 20 18 18 19 20 21 21 22 22 21 21 22 23 24 24 26 26 25 25 26 27 27 28 28 27 27 26 24 24 24 22 22 25 27 28 28 26 28 31 32 32 33 35 37 38
18 18 18 17 18 17 17 17 17 17 17 16 16 16 16 16 16 16 17 17 18 19 20 21 21 18 16 16 18 19 20 23 25 26 26 25 24 24 23 22 20 18 18 19 19 20 21 22 21 21 21 22 23 24 25 26 26 25 26 27 28 28 29 29 27 26 25 24 25 25 22 21 22 25 27 27 27 28 30 30 31 33 34 36 38
18 18 17 17 17 16 16 16 16 16 16 16 17 17 17 18 17 17 17 17 18 20 20 21 21 20 17 16 17 18 20 22 22 23 24 24 24 23 23 22 20 19 19 19 19 20 21 21 21 20 21 22 23 24 25 26 25 25 26 27 28 29 29 29 28 25 24 23 23 23 23 21 21 23 26 26 28 29 28 26 26 27 31 34 36
17 17 17 16 16 15 15 15 16 16 17 18 18 18 19 19 19 18 19 19 19 19 20 20 21 21 19 17 17 18 20 22 24 24 26 27 26 25 26 24 22 20 19 19 20 21 21 21 20 20 21 22 23 24 24 24 25 26 27 26 27 28 28 28 27 25 23 22 21 21 22 21 20 22 23 23 24 25 25 26 24 24 27 31 33
17 17 16 16 15 15 16 16 17 18 19 19 19 19 20 20 20 21 20 19 19 19 20 20 21 22 21 18 17 18 19 24 29 29 30 32 31 28 28 26 23 21 20 19 20 21 21 21 20 21 23 23 24 25 25 24 25 27 27 26 26 27 27 26 25 23 22 22 21 20 20 19 19 21 21 22 24 24 23 24 24 23 26 29 32
17 16 16 16 15 15 16 17 18 19 19 19 19 20 21 22 22 21 20 19 19 19 20 21 22 23 21 18 18 17 18 25 30 31 32 34 34 31 28 28 25 22 21 21 22 23 22 21 21 21 23 24 26 27 27 27 28 28 28 28 26 26 26 25 23 22 21 21 21 19 17 18 19 20 22 24 25 24 24 23 22 23 24 23 24
18 16 15 15 15 16 16 17 18 18 19 20 21 21 22 23 22 21 20 20 20 20 22 22 23 24 21 18 17 16 18 25 29 30 31 33 35 32 27 28 27 23 23 24 24 24 23 22 22 22 23 25 27 27 28 31 33 33 32 31 27 24 24 24 24 24 22 21 21 21 18 19 22 21 21 24 24 23 25 25 23 22 20 16 13
18 16 16 16 16 16 16 16 17 18 19 21 22 22 23 23 22 21 20 20 20 21 23 23 23 25 22 18 17 15 18 24 27 29 31 33 35 32 26 26 26 23 24 24 23 24 24 23 23 22 24 26 27 28 30 33 34 35 34 31 27 24 22 23 24 25 24 23 23 23 22 21 23 24 22 21 23 24 26 26 27 24 21 18 15
18 17 17 17 17 17 16 16 17 18 19 21 22 23 23 23 22 22 21 21 21 22 23 23 23 24 22 18 16 15 18 23 26 29 31 32 35 32 26 25 24 23 24 24 23 23 23 23 24 24 26 27 27 29 32 32 32 34 32 29 26 25 24 24 24 24 25 25 25 26 25 23 25 27 25 23 22 24 25 26 29 27 24 24 23
19 19 18 18 18 17 16 16 17 18 19 20 21 22 23 23 23 23 22 22 22 22 22 23 23 24 22 19 15 14 19 24 26 28 30 33 35 32 26 24 24 23 24 24 23 23 23 24 25 26 27 27 28 32 34 32 30 31 30 28 27 26 25 24 23 22 23 24 25 29 30 28 29 32 30 27 26 24 25 27 28 27 29 30 30
20 19 18 17 17 16 16 17 18 18 18 19 20 21 23 24 24 23 23 22 21 20 20 22 22 22 23 21 18 17 22 25 25 27 29 33 34 29 24 24 25 24 24 24 23 22 22 24 25 27 28 28 31 36 37 33 30 29 29 29 29 29 27 24 23 24 24 25 27 31 35 33 32 34 32 29 28 27 27 30 31 30 32 31 28
19 18 17 16 16 16 17 17 17 16 17 18 19 20 22 24 24 24 23 22 20 19 18 20 21 21 22 23 21 21 23 25 25 25 28 33 33 27 24 25 26 25 25 24 23 22 22 24 26 28 28 29 34 39 39 34 29 28 28 29 30 30 28 25 26 28 28 28 29 31 34 33 31 30 31 29 28 28 28 29 31 31 28 24 20
17 17 16 16 16 16 16 16 16 16 16 17 19 20 21 23 24 25 23 22 21 19 17 17 19 20 21 22 23 22 23 24 25 25 27 32 32 26 24 26 25 25 26 25 24 23 23 24 27 29 30 31 36 40 40 35 30 27 28 30 31 31 29 29 31 32 31 31 30 28 27 24 22 21 22 23 24 26 27 26 27 25 20 15 11
16 16 16 16 16 16 15 15 15 15 15 17 19 20 20 21 22 23 23 21 20 19 18 18 18 19 20 21 22 22 23 23 25 25 27 30 30 25 24 26 26 26 26 26 25 25 25 25 27 30 32 34 37 40 40 36 31 28 29 30 31 30 32 34 35 34 33 32 28 26 23 18 15 13 15 17 18 21 24 26 26 22 18 14 10
16 16 17 17 16 16 15 15 15 15 16 18 19 19 20 19 20 22 21 20 19 20 20 19 18 19 20 21 22 23 23 23 25 25 25 28 29 26 24 26 27 27 27 27 26 26 26 26 27 32 37 38 39 40 40 38 34 29 29 30 30 31 35 36 35 34 34 32 28 26 23 19 15 13 12 12 13 15 18 23 25 23 22 20 16
17 17 17 17 16 15 14 14 15 15 16 17 18 19 19 18 18 20 20 19 19 21 21 20 19 18 19 20 21 23 23 23 24 25 24 25 28 27 24 24 26 26 27 28 27 26 28 27 28 34 39 39 40 40 39 40 36 29 30 33 32 34 36 34 32 32 30 29 28 25 22 20 18 16 14 12 11 10 12 16 22 25 26 25 22
19 18 17 16 15 14 13 13 14 14 14 15 16 17 17 17 17 19 19 19 21 22 22 21 18 17 18 19 20 21 22 22 24 24 23 23 26 28 26 26 26 24 24 25 26 26 28 28 29 35 38 38 39 40 39 41 37 31 32 36 35 35 36 32 31 32 28 26 27 24 21 21 20 19 18 17 16 13 11 10 16 21 23 24 23
19 18 17 15 14 13 13 12 12 12 12 13 14 14 15 15 16 17 18 19 20 20 21 19 16 15 15 16 17 19 20 22 24 24 23 23 25 27 28 29 29 25 21 22 25 26 26 27 29 34 37 37 38 39 39 40 39 36 37 39 37 37 36 32 33 33 29 27 26 24 23 24 24 24 23 20 18 16 14 10 11 16 20 22 21
19 17 16 15 14 13 12 11 11 11 10 10 11 11 12 14 15 16 17 17 16 16 17 17 15 14 14 14 15 17 19 21 23 24 24 24 25 26 27 28 30 29 23 20 22 23 25 27 30 33 35 36 37 38 39 40 40 40 40 40 38 38 37 35 36 35 31 28 26 25 25 26 26 27 26 23 19 16 15 14 11 12 17 22 22
19 17 16 15 14 13 12 10 10 9 8 8 8 8 10 12 12 14 15 14 12 12 14 14 14 14 14 14 15 16 18 19 21 23 24 25 25 26 26 27 30 30 26 22 22 24 26 28 31 32 33 35 37 37 39 41 41 41 41 40 39 40 40 38 38 35 31 28 27 27 28 28 27 27 26 25 22 18 16 16 12 9 11 16 20
19 17 16 14 13 12 11 10 9 7 7 6 5 6 7 8 8 10 11 10 10 11 11 12 13 13 13 15 15 16 17 17 18 22 24 25 25 26 26 27 28 29 27 25 26 27 28 29 31 32 33 35 36 36 38 41 41 41 42 41 39 39 40 38 36 34 32 31 30 29 30 31 28 27 26 26 26 24 21 19 15 11 7 6 10
19 18 16 14 13 12 10 9 8 7 5 4 4 4 5 6 5 6 7 8 9 10 10 10 11 11 12 14 14 15 16 17 18 21 23 23 24 24 26 27 28 28 27 27 27 28 28 30 31 31 32 33 32 32 34 38 41 42 43 43 41 39 38 36 34 33 32 32 32 31 30 30 29 27 28 29 30 29 26 24 23 20 13 7 4
18 18 17 15 14 12 11 10 8 7 5 4 3 3 4 4 4 4 5 6 7 8 8 9 10 10 11 12 13 13 15 17 18 20 22 22 22 21 22 24 25 25 25 27 27 26 27 28 28 28 29 30 30 29 30 35 41 43 44 43 41 40 40 39 37 35 32 31 31 31 31 31 30 28 29 31 33 33 31 29 28 25 19 14 13
18 17 17 16 15 13 11 10 8 7 6 4 3 2 2 2 2 2 3 4 5 6 7 8 8 9 10 11 12 13 15 17 19 20 21 21 21 20 21 23 23 23 24 27 27 26 25 25 25 26 27 28 29 30 29 32 38 43 44 42 41 41 42 42 42 40 37 34 33 33 34 34 32 30 30 32 35 35 33 29 27 26 24 21 19
18 17 17 16 15 14 12 10 9 7 6 5 4 2 1 1 1 2 3 4 4 4 5 6 7 8 9 10 11 12 14 16 18 20 20 19 19 19 19 21 22 22 23 25 25 23 22 22 24 26 27 28 29 30 29 30 32 37 42 42 40 41 42 42 42 41 39 37 35 34 34 33 32 31 32 33 34 34 33 30 28 28 28 26 24
19 17 16 16 15 14 12 11 9 8 7 6 4 3 2 1 1 1 2 3 3 4 4 4 6 8 8 8 10 11 12 15 17 19 20 19 19 19 18 20 21 21 22 23 21 20 20 21 22 24 26 28 28 28 29 29 28 31 39 43 42 41 40 40 40 39 37 36 35 33 33 33 30 30 32 32 31 31 32 31 29 30 29 27 25
19 17 16 15 15 14 13 11 10 9 7 7 5 3 2 1 1 2 2 2 3 4 4 4 5 7 8 9 10 11 12 14 16 18 19 20 20 20 20 22 22 22 23 23 20 19 20 20 21 22 25 27 27 26 27 29 27 28 34 40 42 42 40 38 38 37 35 36 35 34 34 33 30 29 30 29 26 26 29 29 28 29 30 28 26
19 17 16 15 14 13 12 11 10 9 8 7 6 4 3 2 0 1 1 2 3 4 4 4 5 6 8 9 10 11 11 14 15 16 18 19 19 20 21 23 23 23 23 22 19 19 20 21 22 24 26 27 27 26 26 27 27 27 28 30 34 40 42 39 37 36 35 35 36 35 34 32 29 29 28 25 24 25 26 27 28 28 29 30 29
18 17 16 15 15 13 12 10 10 9 8 7 6 5 3 2 1 0 1 2 3 4 5 5 5 6 7 8 9 10 11 12 14 15 16 17 18 19 21 23 24 24 23 21 20 21 22 22 22 24 25 25 26 26 26 26 27 27 27 25 27 35 41 41 40 38 36 35 34 33 34 32 29 27 26 24 23 24 24 25 28 28 28 29 30
18 19 17 16 16 14 12 11 10 9 8 7 6 5 5 4 2 2 2 2 2 3 4 5 6 6 6 7 8 9 9 11 12 13 14 14 16 19 20 21 22 23 21 20 21 21 21 22 22 23 24 25 25 25 26 27 26 26 27 26 25 30 37 41 42 40 38 37 36 35 35 34 29 26 26 26 25 25 24 25 27 27 26 26 27
18 19 18 16 15 14 13 12 10 9 9 8 7 6 6 5 5 4 4 4 4 3 4 4 5 6 6 6 7 7 8 9 10 12 13 13 15 18 19 18 18 19 19 19 20 20 21 22 23 24 24 25 27 27 26 27 26 25 26 26 25 28 34 38 40 41 39 38 38 36 34 33 30 27 28 27 27 27 25 24 27 29 27 25 25
17 19 19 17 15 14 13 13 11 10 9 8 8 7 7 7 6 6 5 5 6 5 5 4 5 6 5 6 7 7 8 8 9 11 12 12 14 15 16 15 15 16 16 17 18 19 20 21 22 23 24 25 27 27 26 25 25 25 25 25 24 26 29 31 37 41 40 37 37 36 32 29 28 28 29 29 28 27 26 24 27 31 31 27 25
17 18 19 18 16 14 14 13 13 12 10 9 8 8 8 8 8 7 7 6 7 7 6 6 6 6 5 6 7 7 8 8 9 10 11 12 14 14 13 13 14 14 15 16 16 17 19 21 21 22 24 25 26 26 25 25 24 23 25 25 24 26 29 31 36 42 40 35 34 35 32 28 27 26 27 29 29 27 26 25 26 29 31 30 28
16 18 19 18 16 15 14 14 14 13 13 11 10 10 10 9 9 9 8 8 8 8 8 7 7 7 6 6 7 8 8 8 8 9 10 11 12 12 11 12 13 13 14 15 15 15 17 19 20 21 22 24 25 25 24 24 23 22 23 24 24 26 30 32 35 40 37 32 31 31 30 28 27 24 24 27 28 27 26 25 25 25 27 28 27
16 17 18 18 16 15 14 14 14 15 15 15 14 13 12 11 10 10 9 8 8 8 8 8 8 7 7 7 7 8 8 8 8 9 10 10 10 11 11 11 12 13 14 14 15 15 16 18 19 20 21 22 23 23 23 23 22 21 21 22 23 24 27 29 31 34 33 30 29 29 29 29 27 25 23 24 25 25 24 24 24 24 24 24 24
17 17 18 18 17 16 15 14 14 15 16 16 17 16 15 13 11 10 9 8 8 8 8 8 8 7 7 8 8 8 8 8 8 8 9 10 10 10 10 11 11 12 13 14 15 15 16 16 18 19 19 20 20 21 22 23 22 20 20 21 21 22 24 27 31 34 33 30 28 29 29 28 26 26 25 22 21 21 21 21 21 23 23 22 22
18 18 19 19 18 17 16 14 14 14 15 15 16 17 17 15 13 11 11 10 9 9 9 9 9 9 8 9 9 8 8 7 8 8 8 9 9 9 10 10 10 11 12 13 14 15 16 16 17 17 17 17 19 21 23 24 22 20 19 20 21 22 23 25 30 35 34 31 28 29 30 29 25 25 26 23 20 19 20 19 20 22 22 22 22
20 20 20 21 20 18 16 15 14 14 14 14 15 16 17 16 15 13 13 12 11 10 10 10 10 10 9 9 9 9 9 8 8 8 8 8 8 9 9 9 9 10 11 13 14 16 17 18 18 17 16 17 20 22 24 24 22 19 18 19 21 23 23 24 29 33 33 31 29 30 31 29 25 24 26 26 22 20 20 19 18 19 21 21 21
22 22 22 22 21 18 16 15 15 15 15 15 14 14 15 15 15 15 14 14 13 12 12 11 10 9 9 9 9 10 10 9 8 8 8 8 8 8 8 8 9 9 11 12 13 15 16 17 17 17 15 16 18 20 22 24 23 20 19 20 21 23 24 25 28 30 31 31 30 28 28 28 25 23 26 27 24 22 22 22 19 18 19 19 19
23 23 23 22 20 18 16 15 15 16 16 16 15 14 14 15 15 15 15 15 15 14 13 12 11 10 10 9 9 9 9 8 8 8 8 8 8 8 8 8 8 9 10 10 11 13 14 15 16 16 15 15 16 18 20 22 23 21 20 19 20 22 23 25 26 27 28 30 29 26 24 24 24 23 24 25 23 22 23 24 22 19 19 18 17
23 24 24 22 20 18 17 16 16 17 17 17 16 16 15 15 16 16 16 16 15 15 14 13 13 12 11 9 8 8 8 8 8 9 9 9 8 8 7 8 8 9 9 10 10 11 12 13 13 14 14 15 16 16 18 20 21 21 21 20 19 20 21 22 23 23 24 27 28 26 23 22 22 23 24 23 20 20 21 23 23 21 19 17 16
21 23 24 23 21 19 18 17 17 17 18 17 17 17 17 17 16 16 15 15 15 15 15 14 14 14 13 12 10 9 9 9 9 9 9 9 9 8 8 8 8 8 9 9 9 10 11 11 11 12 13 14 15 15 16 17 18 19 20 20 19 19 19 19 20 20 21 23 25 25 24 22 22 23 24 21 20 21 22 22 22 22 19 17 15
18 20 22 22 21 20 19 19 18 18 18 18 18 18 18 18 18 17 16 15 15 15 15 16 15 15 14 13 12 11 10 10 9 9 10 10 10 10 9 9 9 9 8 8 8 8 9 10 10 10 11 13 14 14 14 14 15 16 17 18 19 19 18 18 18 18 19 21 22 23 23 22 22 23 24 23 22 22 21 20 19 19 17 17 15
19 20 21 21 21 21 21 21 20 19 19 19 19 19 18 19 19 19 18 17 17 16 16 17 17 17 16 16 15 13 13 12 11 11 11 11 11 11 11 10 10 10 9 8 7 7 8 8 8 9 10 11 13 13 13 13 13 14 15 16 17 17 17 17 17 16 16 18 19 20 21 21 21 23 24 24 23 23 21 20 19 17 15 16 16
20 21 21 21 21 20 20 21 21 20 20 20 20 20 20 20 21 21 20 20 19 19 18 18 18 18 18 18 17 16 15 14 14 13 12 11 11 11 11 11 11 11 10 9 7 7 7 7 8 8 8 9 10 12 12 12 13 14 15 15 16 16 15 15 15 15 14 15 16 17 18 19 19 20 22 23 24 23 22 22 20 17 14 15 16
23 23 22 22 22 20 19 19 20 20 21 21 22 22 21 21 22 23 23 22 22 21 21 21 21 21 20 20 19 19 18 16 16 14 13 12 12 12 12 12 12 12 11 10 9 7 7 7 7 7 7 8 8 9 10 11 12 13 14 14 15 16 15 14 14 14 13 14 14 15 15 15 16 18 19 20 22 22 22 22 22 18 14 13 14
26 26 25 25 24 23 22 21 21 21 22 23 24 24 23 23 23 24 25 24 24 24 24 23 23 23 23 22 22 21 20 19 18 17 16 15 14 13 13 13 13 13 13 12 10 8 7 7 7 7 6 6 7 7 8 9 10 10 11 13 14 15 15 16 15 14 13 13 13 13 13 13 14 15 16 17 18 19 20 21 20 17 14 13 13
Wind_Direction
95 93 90 86 82 78 75 71 69 69 68 67 66 64 64 64 63 63 62 59 56 55 53 52 48 44 43 41 40 38 34 32 29 25 19 15 11 7 4 3 2 359 355 354 353 352 348 344 343 342 344 344 341 341 340 339 340 340 341 342 335 332 327 316 300 288 285 282 278 276 270 261 254 246 241 239 235 231 230 229 228 227 226 227 230
96 94 92 90 86 83 80 76 73 71 69 66 65 65 63 63 64 64 61 58 56 53 49 48 45 41 39 37 36 36 33 31 30 26 21 16 11 7 4 2 2 359 356 354 352 349 347 344 343 343 345 344 342 342 341 340 340 338 339 341 335 330 332 328 318 306 296 289 282 278 274 261 249 244 241 238 234 229 229 229 227 227 226 224 225
97 95 93 90 89 86 83 79 75 70 67 65 64 63 62 62 62 62 59 57 56 53 49 47 44 41 37 33 31 30 29 29 29 28 25 20 14 9 6 3 1 358 356 355 352 349 348 346 344 344 345 344 343 343 343 341 340 337 335 336 333 329 330 330 324 315 306 299 289 280 272 260 251 250 247 240 236 231 230 230 227 226 227 225 224
99 95 92 90 89 87 83 79 74 69 66 63 62 62 61 60 59 58 57 55 54 53 51 48 45 42 39 35 31 28 25 25 27 28 27 23 17 12 10 6 2 360 355 353 352 350 349 347 346 345 344 344 343 343 343 342 340 337 334 333 332 329 327 327 325 320 313 305 296 285 274 262 255 254 250 243 239 235 232 231 227 223 225 225 223
101 95 92 90 88 85 82 77 71 67 65 63 61 59 58 58 56 55 55 54 53 52 50 48 46 43 40 36 33 30 25 24 25 26 24 22 18 14 12 9 3 0 357 353 352 352 350 346 345 346 345 344 343 342 341 340 339 337 335 333 331 328 326 323 323 321 315 308 302 295 281 265 257 254 250 244 238 234 231 231 228 225 226 225 222
103 96 92 90 88 84 80 75 70 66 64 62 60 58 57 57 56 54 54 54 53 52 50 48 46 44 42 38 36 33 28 24 24 23 21 19 16 13 12 9 4 360 356 354 353 353 351 348 346 346 346 344 342 341 339 338 337 336 334 333 331 328 324 321 321 320 315 309 305 300 285 266 256 254 251 244 235 229 227 227 227 226 225 223 219
105 99 94 91 88 84 80 74 70 67 65 64 63 60 59 58 56 55 55 55 53 51 50 48 47 45 44 39 36 34 30 25 22 20 19 17 13 11 10 6 3 359 355 354 354 352 351 350 347 346 345 343 341 340 339 338 335 333 332 330 329 328 324 321 320 317 312 307 305 302 288 267 253 252 253 246 237 229 220 216 218 219 218 216 214
110 102 97 94 89 85 82 76 72 70 69 68 65 63 60 58 57 56 56 56 54 51 49 48 46 45 44 41 37 34 30 26 23 20 19 18 14 11 9 6 2 359 357 355 354 353 351 349 347 345 344 341 340 339 338 337 334 331 331 328 327 326 322 320 318 314 311 306 302 303 295 274 254 248 250 244 237 231 220 212 212 211 210 212 213
115 106 102 97 92 89 85 81 78 74 72 68 64 62 60 58 57 56 56 56 55 53 50 48 46 44 43 40 36 35 30 27 26 24 21 20 17 12 9 6 1 357 356 356 355 354 351 348 345 343 343 341 339 337 335 336 334 329 327 326 325 323 320 317 315 312 311 307 302 303 301 287 262 244 239 238 235 234 228 219 216 212 209 210 213
119 113 107 100 97 95 90 86 80 74 70 65 63 61 59 59 58 57 57 57 56 55 51 48 45 43 41 38 35 35 30 28 29 27 23 22 19 14 8 4 1 357 356 357 356 353 351 348 344 342 342 342 340 338 336 335 333 328 326 324 321 318 316 313 311 311 310 306 303 301 300 295 280 254 237 235 236 235 230 222 218 213 206 205 210
123 117 111 105 103 100 95 89 80 72 68 65 64 62 61 60 59 58 59 57 55 53 50 47 45 43 41 37 35 35 29 28 28 25 23 22 19 16 8 2 0 359 359 360 356 352 350 348 345 343 343 343 341 339 336 334 332 330 329 326 323 318 312 308 308 310 307 303 301 298 294 293 294 283 257 240 235 233 229 223 218 212 202 195 199
121 116 112 109 108 104 99 90 80 73 69 67 66 64 62 61 58 56 57 55 53 52 49 48 45 44 43 38 35 33 27 26 26 24 21 20 19 16 7 360 0 1 2 1 356 353 351 348 347 345 344 344 343 340 337 333 332 332 330 328 326 320 311 305 303 302 302 301 298 295 290 287 291 292 281 259 240 230 230 228 220 214 208 203 200
117 114 112 112 111 108 102 93 83 76 71 69 68 65 63 60 57 56 55 54 55 53 51 50 47 45 44 38 33 31 25 23 24 23 20 18 18 15 6 1 4 5 4 1 356 355 353 349 348 347 344 345 344 342 338 334 332 332 331 328 324 319 315 310 303 299 297 296 293 290 287 286 286 284 284 281 262 237 229 230 224 216 210 209 207
117 115 114 114 113 110 103 95 87 80 74 71 70 67 65 62 59 58 56 54 55 54 52 51 48 46 45 41 34 30 26 23 22 20 19 17 15 13 7 5 8 6 4 3 359 358 356 353 350 347 346 346 345 344 342 337 332 330 328 326 323 320 318 315 310 306 300 293 291 288 285 284 280 276 277 282 278 257 237 232 228 218 212 214 215
119 118 117 116 115 111 104 97 90 83 78 74 71 69 67 65 62 60 58 56 56 55 52 51 48 46 46 43 37 31 28 25 22 19 19 17 14 12 10 10 10 9 7 5 2 1 359 357 354 351 348 347 346 348 347 341 334 329 326 325 324 322 320 316 313 311 305 297 292 290 288 284 278 275 274 272 273 268 254 243 239 231 221 219 216
123 122 121 118 115 111 105 100 95 88 81 75 72 70 68 66 65 64 61 59 58 55 51 49 46 45 44 42 38 33 29 27 23 21 20 18 15 14 13 13 12 10 8 6 4 3 0 358 357 354 350 348 349 352 352 346 338 332 329 327 326 324 322 319 317 317 316 313 308 304 299 292 282 276 272 267 264 266 264 255 245 235 222 210 204
130 129 125 121 116 111 107 104 99 92 84 77 73 72 70 68 67 66 64 60 58 55 49 45 43 42 42 41 37 33 30 28 25 22 21 20 17 16 16 16 13 11 9 7 4 2 360 358 358 355 352 350 352 355 355 351 343 337 334 330 328 328 326 326 327 328 329 327 324 322 316 306 296 284 274 270 266 262 263 257 242 230 217 202 192
138 135 129 124 119 114 111 108 103 95 87 81 76 73 72 70 68 68 66 62 58 55 51 46 43 42 42 41 39 36 32 30 28 25 22 21 19 18 17 15 13 11 9 7 4 1 358 357 357 356 354 353 355 358 358 354 348 342 339 335 331 331 331 331 332 333 333 333 332 332 333 330 325 311 291 283 273 259 255 251 239 225 214 211 201
144 139 133 128 124 119 115 111 105 99 91 85 80 76 74 73 71 69 67 62 57 55 53 50 46 45 46 43 40 39 36 32 29 25 22 21 20 19 18 14 11 10 8 6 4 2 359 357 356 357 358 358 359 360 360 358 353 346 343 341 335 333 334 333 333 333 334 335 335 334 338 343 346 342 326 310 291 266 255 250 241 227 216 214 207
146 142 137 134 129 124 120 114 107 102 95 88 83 79 76 74 72 69 66 62 58 55 55 53 49 47 47 44 41 39 36 32 27 23 22 22 20 19 18 13 9 7 6 6 4 2 2 1 357 359 1 2 1 1 1 1 358 351 348 346 340 337 339 338 338 339 337 338 339 337 339 346 353 357 356 351 337 307 274 253 241 231 223 218 209
149 147 143 140 136 130 125 118 109 104 99 93 86 81 76 73 71 68 64 61 58 55 53 52 48 45 44 43 41 38 35 30 27 25 26 25 22 20 18 15 11 7 3 6 7 5 3 1 357 359 2 3 2 3 2 2 2 357 353 351 347 349 351 348 346 346 343 342 345 345 344 349 356 4 7 8 3 349 322 274 243 234 231 226 218
153 152 149 146 143 138 131 123 115 108 102 96 89 82 77 71 67 65 62 59 56 53 50 48 45 40 38 37 35 35 33 30 28 27 27 26 24 22 20 18 16 12 5 4 7 6 2 358 357 0 4 4 3 4 3 4 4 1 358 357 357 0 360 355 353 354 351 347 350 352 353 355 359 5 9 9 7 3 354 326 270 247 241 236 231
156 155 154 152 148 144 137 130 123 115 106 101 94 85 77 70 64 62 59 55 51 47 44 41 38 34 33 29 26 26 27 27 27 26 26 25 24 23 22 20 20 19 12 5 3 2 359 358 0 5 7 7 6 6 6 6 6 4 2 2 4 5 4 1 1 359 354 351 353 355 357 358 359 3 9 9 5 6 13 4 328 278 254 243 240
164 161 161 157 154 151 146 139 132 124 114 105 98 87 78 69 62 59 56 51 46 42 39 35 32 29 26 23 21 19 19 21 22 23 24 24 23 22 22 20 20 21 18 10 6 4 4 5 8 10 10 10 10 11 10 10 8 7 6 6 6 7 7 6 4 360 354 354 356 356 358 0 0 3 10 13 12 16 29 27 5 323 281 251 243
175 173 171 168 166 162 157 153 145 137 127 114 103 91 78 69 60 55 52 47 43 41 36 32 29 26 23 20 17 15 15 14 14 17 21 22 20 20 20 18 18 20 19 15 13 12 11 12 13 12 13 13 12 12 12 11 10 9 9 9 8 7 7 5 3 1 357 355 356 357 359 2 5 10 16 21 24 27 33 36 32 19 352 286 247
180 182 182 181 181 176 172 172 166 157 148 127 108 94 78 69 60 51 46 43 41 39 34 29 25 22 21 18 14 12 13 13 11 11 14 15 13 14 15 15 17 19 18 16 14 13 13 14 14 13 13 13 12 9 8 10 11 11 11 11 9 8 7 6 4 2 360 357 357 359 360 1 7 15 21 26 29 30 29 32 38 41 37 39 52
183 186 187 189 191 190 189 189 184 178 172 156 128 98 79 69 56 44 40 38 37 35 30 26 21 17 14 11 8 10 14 15 11 8 8 10 9 8 10 11 13 14 14 14 13 11 10 12 12 12 12 12 13 11 9 10 13 13 11 11 9 9 8 9 8 7 4 2 2 3 5 7 11 16 22 27 30 30 29 32 36 39 42 49 53
190 190 190 192 196 197 198 199 197 192 184 174 166 145 90 63 44 34 32 32 29 25 22 20 16 11 7 4 6 10 15 15 12 9 10 11 11 11 10 10 10 9 9 13 14 11 9 9 9 10 11 10 12 12 10 10 12 13 12 10 9 9 10 11 11 11 9 8 9 10 12 14 17 20 24 28 29 29 32 35 35 37 41 47 48
199 198 197 197 199 200 201 202 200 195 186 176 170 162 139 72 30 18 24 30 28 19 14 10 7 6 4 2 5 9 11 12 13 14 16 15 15 15 13 11 10 7 7 13 14 10 7 8 9 10 11 11 10 9 7 6 7 9 11 10 9 9 9 9 9 10 10 11 12 12 13 15 17 21 24 28 29 30 33 37 37 38 41 44 43
200 201 202 203 203 201 201 200 195 190 187 183 179 168 148 97 43 28 21 23 23 20 14 6 4 8 7 6 11 13 11 11 14 17 20 20 19 18 14 12 10 8 9 16 17 11 8 10 10 10 11 12 10 7 5 4 2 3 8 11 11 11 9 8 9 10 11 12 13 13 13 14 15 18 22 25 28 31 34 36 39 41 41 40 40
189 192 196 199 198 197 197 196 190 185 183 184 188 190 184 156 50 42 34 17 12 11 12 8 9 12 10 10 13 15 13 13 15 17 19 22 23 21 18 16 14 14 19 22 19 13 12 11 9 10 11 11 10 5 3 3 1 359 3 8 10 11 11 9 10 11 12 13 15 15 15 15 15 17 20 23 26 29 33 35 38 41 41 41 40
180 181 185 188 189 189 191 189 185 184 184 184 189 196 203 208 224 29 19 9 1 358 3 8 11 11 9 8 10 10 9 11 13 14 16 20 22 22 21 21 20 22 26 26 21 16 14 12 10 11 11 11 9 5 3 3 2 360 360 0 5 11 14 13 14 16 15 15 16 16 16 16 17 19 20 22 25 27 29 31 35 39 42 42 42
184 181 182 184 185 186 188 187 185 187 188 188 192 199 206 211 210 346 346 346 346 348 356 4 6 6 4 2 4 6 6 8 9 9 11 14 16 16 19 22 25 27 28 25 20 18 17 14 13 12 11 11 9 6 4 4 3 3 2 358 1 10 15 17 18 19 19 18 18 19 19 19 20 21 21 22 25 27 27 29 33 37 40 41 42
194 188 184 186 187 187 189 189 189 191 191 193 197 202 209 222 244 268 293 320 331 338 350 355 357 359 358 356 359 2 4 5 5 4 6 7 9 11 14 18 21 24 26 24 22 20 17 14 13 12 10 9 7 5 5 4 3 3 4 2 1 7 15 19 20 19 19 20 21 21 22 23 23 24 26 25 26 28 28 27 30 33 35 38 42
201 195 190 190 192 193 195 194 194 196 198 200 204 207 215 228 244 258 276 297 309 319 333 342 345 348 348 349 355 360 1 2 2 2 2 2 3 8 13 14 12 16 21 22 20 18 16 13 11 11 10 8 7 6 4 3 4 5 5 4 4 8 14 18 19 19 20 21 21 21 22 22 22 27 32 31 29 29 30 29 30 32 34 35 39
201 198 195 196 198 200 202 202 202 204 206 208 208 212 221 232 243 257 270 279 288 298 308 318 329 337 341 343 350 355 356 357 358 359 360 1 3 7 11 10 7 9 13 15 14 13 12 11 10 10 9 8 7 6 4 3 4 6 7 7 8 11 13 14 18 21 22 20 20 21 21 19 19 25 32 36 35 33 33 33 33 35 37 37 37
200 198 197 199 202 205 209 212 212 213 216 218 218 221 228 237 247 258 267 273 280 288 294 302 313 324 330 335 342 348 350 350 353 357 360 2 5 8 7 4 4 5 6 7 6 6 9 10 9 9 9 8 6 5 4 4 4 6 8 10 10 14 16 17 20 23 21 17 16 19 19 18 18 22 30 36 38 37 36 36 36 36 38 41 41
205 201 198 199 203 209 215 220 222 223 225 225 228 232 235 242 251 259 266 274 281 284 288 294 301 309 315 321 329 338 344 345 348 353 357 359 2 4 2 360 1 2 1 1 0 1 4 7 6 6 7 7 5 3 3 3 5 6 9 10 11 14 17 19 20 22 19 14 12 14 17 19 20 21 28 35 38 39 40 40 39 39 39 40 40
211 206 202 202 206 212 219 224 227 230 231 231 233 236 239 244 252 259 266 275 282 284 287 291 294 299 303 307 315 326 336 341 343 346 348 350 354 356 357 357 359 358 358 358 357 357 360 1 2 3 4 4 4 4 2 3 5 7 8 10 11 14 16 16 17 18 17 14 12 13 15 19 20 22 27 32 36 39 42 43 44 45 43 41 39
212 209 204 204 208 216 224 231 234 235 236 235 235 237 240 244 249 255 262 270 279 286 290 292 296 300 299 299 304 313 322 330 335 338 339 340 344 349 352 354 355 354 354 356 356 357 357 358 358 1 3 3 4 4 3 4 6 7 9 10 11 11 14 16 17 18 17 15 13 14 15 16 19 23 27 30 31 35 39 42 46 49 48 45 43
212 209 205 206 211 218 227 235 238 237 236 235 235 236 240 243 248 252 257 264 273 282 290 295 301 306 303 299 299 303 307 314 323 329 331 333 336 341 345 348 350 351 351 353 355 357 358 358 358 359 1 5 7 7 5 6 8 8 8 10 11 11 12 14 16 19 18 15 14 16 18 19 19 22 27 30 30 33 39 41 44 48 50 49 48
211 210 207 209 214 219 226 233 237 237 236 236 236 238 241 244 248 252 256 261 266 272 281 293 302 307 306 302 299 300 301 303 310 318 323 325 330 334 338 341 344 348 349 350 353 357 1 3 3 2 4 7 10 10 9 9 9 9 8 8 11 13 13 12 14 17 17 15 15 18 22 22 20 22 29 34 35 34 37 39 40 44 49 50 51
212 211 210 212 216 221 227 232 237 238 237 237 238 241 244 246 249 253 256 260 264 265 271 283 294 301 303 301 298 299 299 298 301 310 316 320 324 328 333 336 339 343 346 348 351 356 1 5 6 5 6 8 9 11 12 12 12 13 11 10 12 13 13 13 13 14 15 16 16 16 19 21 21 21 29 36 39 37 37 39 39 42 47 49 51
214 213 213 216 221 225 229 233 236 237 238 239 241 244 247 249 251 253 255 257 261 262 265 273 283 290 293 294 294 295 296 295 299 303 307 311 318 322 326 332 335 337 342 346 348 352 359 5 6 5 6 7 7 9 12 14 16 17 14 12 13 13 13 13 14 13 15 17 17 14 15 19 22 23 28 33 36 36 37 38 38 40 45 50 52
218 217 218 221 226 229 230 233 236 236 237 240 242 243 246 248 249 250 251 253 257 261 263 268 275 280 282 284 285 288 291 294 297 299 299 303 310 316 320 324 328 333 338 341 344 349 356 2 5 6 6 6 6 7 10 13 17 20 19 17 16 15 13 12 14 15 17 19 20 20 19 20 23 26 29 30 30 31 35 38 38 38 42 47 53
223 223 223 226 230 232 232 235 237 236 237 240 242 242 244 246 245 245 247 249 253 257 260 265 270 273 274 277 278 280 285 289 293 296 297 297 300 306 312 316 319 326 332 336 339 345 352 357 2 5 7 7 6 7 8 10 13 18 21 21 20 19 16 14 16 19 22 24 25 26 26 25 25 27 31 33 32 33 34 36 37 38 40 42 49
225 226 226 228 231 234 236 238 239 239 239 242 243 243 244 244 243 243 244 246 250 254 257 261 265 267 268 271 273 275 278 281 285 290 295 296 296 299 303 307 312 317 322 328 333 338 344 349 354 0 5 8 8 7 7 7 9 13 17 20 21 20 19 18 19 22 26 29 29 30 30 31 30 30 32 34 34 33 32 31 31 35 38 39 42
222 224 225 228 233 237 240 240 240 241 242 244 246 246 245 244 244 244 245 246 250 253 255 258 262 264 265 268 270 272 274 277 280 285 291 293 294 294 295 297 302 307 311 318 324 328 333 338 343 348 356 3 7 8 8 7 8 11 14 17 18 18 19 21 22 23 28 33 35 33 32 33 34 35 35 36 35 35 33 30 30 31 34 37 40
220 221 224 228 232 237 240 240 239 240 243 246 247 246 245 244 244 245 247 249 251 253 255 257 260 263 265 266 268 270 272 274 275 278 283 286 289 291 290 291 293 297 301 306 310 313 318 325 330 334 344 353 360 6 9 9 9 11 13 15 17 18 19 20 22 24 27 33 37 36 34 33 34 35 35 35 36 36 34 32 32 31 32 36 40
223 223 227 231 234 238 239 239 239 241 245 248 248 246 245 246 246 246 248 251 253 255 257 258 260 263 265 266 267 269 270 271 272 273 275 278 283 286 287 287 287 288 291 295 298 300 305 311 315 318 327 337 346 357 6 9 10 12 13 15 18 21 20 20 21 23 25 30 35 37 36 34 34 34 33 33 33 33 33 33 33 32 31 34 37
228 229 232 235 238 241 241 241 242 244 245 247 247 246 246 247 248 248 250 253 255 257 259 261 262 265 267 268 269 269 269 269 270 270 270 273 277 280 281 282 283 284 284 286 287 287 288 296 301 302 306 316 326 339 353 1 5 9 11 14 18 22 23 23 24 23 23 26 30 33 34 34 33 33 31 30 29 30 31 32 33 31 29 31 33
Height
861 862 862 863 863 863 862 862 861 860 858 857 857 856 856 856 856 856 855 855 855 854 854 853 852 851 850 849 848 847 846 844 842 841 840 839 838 836 834 832 831 829 827 825 823 821 819 817 815 813 810 808 805 803 800 797 794 791 788 785 782 779 776 773 768 761 757 757 756 754 753 753 752 752 752 753 754 755 757 759 761 762 764 765 767
863 863 863 864 864 864 863 863 862 861 860 859 859 858 858 858 858 858 857 857 857 856 856 855 854 853 852 851 851 849 848 847 845 843 842 840 839 837 835 833 832 830 828 826 824 821 819 817 815 812 810 807 805 803 800 797 795 791 788 786 782 779 776 774 769 762 756 754 753 750 750 751 750 749 749 750 750 752 753 755 756 758 760 761 763
864 864 865 865 865 865 864 864 863 863 862 861 861 861 861 861 860 859 859 859 859 858 857 856 855 855 855 854 853 852 851 849 847 845 844 842 840 839 837 835 833 831 829 826 824 822 820 817 815 812 809 807 805 803 800 798 795 792 788 786 782 778 775 773 770 765 758 753 751 749 747 747 747 746 746 747 748 749 749 750 752 754 756 757 758
865 865 866 866 866 866 865 865 865 864 863 863 863 863 863 863 862 861 861 861 860 860 859 858 857 857 857 856 855 854 853 851 849 847 845 844 842 840 838 836 834 831 830 827 825 823 820 818 815 812 810 807 805 803 800 797 795 792 788 785 782 778 774 771 768 765 760 753 749 747 746 745 743 743 743 744 744 745 745 747 748 750 752 753 754
867 867 867 867 867 868 867 867 866 865 865 865 865 865 864 864 864 863 863 862 861 861 860 859 859 858 858 858 857 857 855 853 850 849 847 845 844 842 839 837 834 832 830 828 826 823 821 818 815 812 810 808 805 803 800 798 795 792 788 785 781 777 772 769 766 763 759 754 748 746 744 743 741 740 740 740 741 742 742 743 745 746 748 749 751
868 868 869 869 869 869 869 869 868 868 867 867 867 867 866 865 865 864 864 863 862 862 861 861 860 859 859 859 859 858 856 854 852 850 848 846 845 842 840 837 835 833 830 828 826 823 821 818 816 813 811 809 806 804 801 798 795 791 788 784 781 776 772 768 764 761 758 753 748 744 742 741 739 738 737 738 738 738 739 740 741 743 744 745 747
869 869 870 870 870 871 870 870 870 869 869 869 868 868 867 866 865 865 864 864 863 863 862 862 861 861 860 860 860 859 857 855 853 851 849 847 845 842 840 837 835 832 830 828 826 823 821 819 816 814 812 810 807 805 802 798 795 792 789 784 780 776 771 767 763 760 756 752 747 743 740 738 737 735 735 735 735 734 735 736 737 739 740 741 743
870 871 871 871 872 872 872 872 872 871 871 870 869 868 868 867 866 865 865 864 864 864 863 863 863 862 861 861 860 859 857 856 853 851 850 847 845 842 839 837 834 832 830 827 826 824 821 819 817 814 813 810 808 806 803 800 796 792 789 785 781 776 772 767 763 759 756 751 747 742 739 736 734 733 733 733 732 731 731 732 733 734 736 738 739
871 872 872 873 873 873 874 873 873 872 872 871 870 869 869 868 867 866 866 865 865 865 865 864 863 862 862 861 861 859 858 857 855 853 850 847 845 842 839 837 834 831 829 827 825 824 821 819 817 814 812 810 808 805 803 800 797 793 789 785 781 776 772 768 763 759 755 751 746 742 738 735 732 730 730 729 728 728 728 729 730 731 733 735 736
872 872 873 874 874 875 875 875 874 874 873 872 871 871 870 869 868 867 867 867 866 866 865 865 864 863 862 862 861 860 859 858 857 855 852 849 846 843 840 837 834 831 829 827 825 823 821 819 816 814 811 808 806 803 801 798 796 793 789 785 781 776 771 767 763 760 756 751 746 741 737 733 731 728 726 725 725 725 726 727 727 728 730 731 733
872 873 874 875 875 876 876 876 876 875 874 874 872 871 871 870 869 869 868 868 867 867 866 865 864 863 863 863 862 862 861 860 858 856 854 850 847 843 840 837 834 831 830 828 826 824 821 818 816 813 810 807 804 801 798 795 792 789 785 782 779 776 772 767 762 758 755 751 746 741 737 733 729 727 724 722 723 723 723 724 725 726 726 726 728
873 874 875 876 876 877 877 877 877 876 875 875 874 873 872 871 871 870 869 869 868 868 867 866 865 865 864 864 864 864 863 861 859 857 854 851 848 844 841 838 835 833 832 830 827 825 822 819 816 813 810 807 804 800 796 792 788 784 781 777 775 773 770 767 762 757 753 749 745 740 737 732 728 725 723 721 720 719 720 721 721 721 722 722 723
874 875 876 877 877 878 878 878 878 877 877 876 875 875 874 873 872 871 870 870 869 869 868 868 867 866 866 866 866 865 864 862 860 857 854 851 848 844 842 840 837 836 834 831 829 826 823 820 816 814 810 807 804 800 795 790 785 781 777 774 771 769 766 763 760 756 752 748 743 738 734 732 727 723 722 720 718 716 716 717 716 716 717 717 717
875 876 877 878 879 879 880 879 879 878 878 878 877 876 875 875 874 873 872 871 870 870 870 869 869 868 868 868 867 867 865 862 860 857 854 852 848 845 843 841 839 837 835 832 829 827 824 821 818 815 811 808 804 800 795 790 784 779 775 771 768 765 762 759 756 753 750 746 741 735 730 729 725 720 718 718 716 714 713 712 712 712 711 711 713
877 878 878 879 880 880 880 880 880 880 880 879 879 878 877 876 875 874 874 873 872 872 872 871 871 870 870 869 868 867 865 863 860 857 855 852 848 845 844 842 840 838 835 833 830 828 825 822 819 816 812 809 805 801 795 790 784 778 774 770 766 762 758 755 752 749 745 742 737 731 725 722 720 716 713 713 713 711 710 709 709 709 708 709 711
878 879 880 880 881 881 881 880 881 881 881 880 880 879 879 878 877 876 876 875 875 874 874 873 873 872 871 870 868 867 865 863 861 858 856 853 849 847 845 843 840 838 836 833 831 828 826 823 820 817 813 809 805 800 795 789 784 778 773 768 764 759 755 752 748 744 740 736 731 726 720 715 713 710 708 708 707 706 707 706 705 705 705 705 707
879 880 881 881 881 881 881 882 882 882 882 882 881 881 880 879 879 878 878 877 877 876 875 874 874 873 872 870 869 868 866 864 862 859 857 854 850 848 846 844 842 839 837 834 832 829 827 825 821 818 814 810 805 799 794 789 783 778 773 768 763 757 752 747 742 737 733 729 725 720 715 710 707 705 704 703 702 703 703 702 700 701 701 701 702
880 881 881 881 882 882 882 883 883 883 883 883 882 882 882 881 881 880 880 879 878 877 876 876 875 874 872 871 870 869 867 865 863 861 858 855 852 850 848 846 843 840 837 835 833 830 827 825 822 819 814 810 804 799 794 789 784 779 774 768 762 756 750 744 737 732 728 724 720 716 712 708 704 702 700 699 697 698 698 696 695 697 698 698 698
880 881 881 882 882 883 883 883 883 884 884 884 883 883 883 883 883 882 881 881 880 879 878 877 876 875 873 872 871 869 868 866 864 862 859 856 853 851 849 847 844 841 838 836 833 831 828 825 822 819 814 809 804 799 794 790 784 780 775 769 763 757 751 744 738 731 726 721 717 713 710 706 702 699 697 695 693 693 693 693 694 694 695 695 696
880 880 881 882 883 883 884 884 884 884 885 885 885 885 885 885 885 884 883 882 881 880 879 877 877 876 875 873 872 870 869 867 865 862 860 857 855 853 851 848 845 843 840 837 834 831 828 826 822 818 813 808 804 799 795 790 785 781 776 771 765 758 751 745 740 733 728 722 717 713 709 705 701 698 695 692 690 690 690 690 691 691 691 692 693
880 880 881 882 883 884 884 885 885 885 886 886 886 886 886 886 886 885 884 883 882 881 879 878 878 877 876 875 873 872 870 868 866 863 861 859 856 853 851 849 847 844 841 838 836 833 830 827 823 818 813 808 804 799 795 790 786 781 777 772 766 759 752 746 741 735 729 724 719 714 710 706 702 697 694 691 689 688 688 687 687 688 689 690 690
879 880 882 883 883 884 885 885 886 886 887 887 887 887 887 887 886 885 884 883 882 881 880 879 879 878 877 876 874 873 871 868 866 864 862 860 857 855 852 850 848 845 842 840 837 835 831 828 824 819 814 809 805 800 796 791 786 781 777 772 765 759 753 747 742 736 730 725 721 716 712 707 703 698 694 691 689 688 687 685 685 685 686 687 688
879 880 882 883 884 884 885 886 886 887 887 887 887 888 887 887 886 886 885 884 883 882 881 880 880 879 877 876 875 873 871 869 867 865 863 860 858 856 854 851 849 846 843 841 839 836 833 829 825 820 815 810 806 801 796 791 786 782 777 771 765 759 753 748 742 737 732 728 723 718 714 709 705 700 696 693 690 688 686 683 682 682 683 684 686
879 880 882 883 884 885 885 886 887 887 888 888 888 888 888 887 887 886 885 885 884 883 882 881 880 879 878 877 875 873 871 870 868 866 863 861 859 857 854 852 849 847 844 843 840 837 834 830 825 820 816 811 807 802 797 793 788 783 777 771 765 760 754 749 744 739 735 730 725 721 717 712 708 703 699 695 692 689 685 682 682 681 680 682 683
879 880 881 883 884 885 886 887 887 888 888 888 888 888 888 888 887 887 886 886 885 884 883 882 881 880 879 878 876 874 872 870 868 866 863 861 859 857 855 852 850 848 845 843 841 838 835 830 826 821 817 812 808 803 798 794 789 784 778 772 767 762 756 751 747 742 737 732 728 724 720 715 711 707 702 697 693 688 685 684 683 681 680 680 682
878 880 881 882 884 884 886 886 887 887 888 888 888 888 888 888 888 887 887 886 886 885 884 883 883 882 880 879 877 875 873 871 869 867 864 861 859 857 855 853 851 848 846 844 841 838 834 830 826 821 817 813 809 805 801 796 791 785 779 774 769 765 760 755 750 746 741 736 732 727 723 718 714 709 704 699 694 690 689 686 683 681 681 681 682
878 879 880 882 883 884 885 886 887 887 888 888 888 888 888 888 888 888 887 887 886 886 885 884 883 882 881 880 878 876 874 872 870 868 865 863 860 858 856 854 851 849 846 844 841 838 834 830 826 823 819 815 811 807 803 798 792 786 781 777 773 768 764 759 754 750 746 741 736 731 726 721 715 710 706 701 696 693 692 689 686 685 685 684 684
877 878 880 881 882 884 885 886 886 887 887 888 888 888 888 888 888 888 888 887 887 886 886 885 884 883 882 880 879 877 875 873 871 869 866 864 862 860 858 855 852 850 847 844 841 838 835 831 827 823 819 815 811 807 803 799 794 789 784 780 776 771 767 762 757 753 749 744 740 735 730 724 719 715 710 705 701 698 695 693 692 691 690 688 687
876 878 879 880 882 883 884 885 886 886 887 887 888 888 888 888 888 888 887 887 887 886 886 885 885 884 882 881 879 878 876 875 873 871 868 866 864 861 859 856 853 851 848 845 842 839 835 831 828 823 820 816 813 809 805 801 797 793 788 784 779 774 770 765 760 756 752 747 743 738 734 729 724 720 715 710 706 704 702 700 699 697 695 693 692
876 877 878 880 881 882 883 884 885 886 886 887 887 887 887 887 887 887 887 887 886 886 886 885 885 884 882 882 880 879 877 876 874 872 869 867 865 862 860 858 855 852 849 845 842 839 835 832 829 826 822 819 816 812 808 804 800 796 792 787 783 778 774 769 765 761 757 752 748 743 739 734 729 724 720 715 713 711 709 707 705 702 700 698 698
875 877 878 879 880 881 883 884 884 885 886 886 887 887 887 887 887 887 887 886 886 886 885 885 884 883 882 881 880 879 878 876 874 872 870 868 865 863 861 858 855 852 849 845 843 840 837 834 831 828 826 822 819 816 812 808 804 800 795 791 786 782 778 774 770 766 761 757 753 748 743 739 735 731 727 723 721 719 716 713 710 707 706 705 703
875 876 877 879 880 881 882 883 884 885 885 885 886 886 886 886 886 886 886 886 885 885 885 884 883 883 882 881 880 879 877 876 874 872 870 868 866 864 861 859 856 853 849 846 844 841 839 836 833 831 828 825 822 819 816 812 808 804 800 795 790 786 782 778 774 770 766 761 757 753 748 744 741 737 734 730 728 725 722 719 716 714 712 710 709
874 875 877 878 879 880 881 882 883 884 884 885 885 885 886 886 886 886 886 885 885 885 884 883 883 882 881 880 879 878 877 875 874 872 870 868 866 864 862 859 856 853 850 847 845 843 841 838 836 833 831 828 825 822 818 815 811 808 804 800 795 791 787 783 778 774 770 766 762 758 754 750 746 743 740 737 734 732 729 726 723 720 718 716 714
873 874 876 877 878 879 880 881 882 883 883 884 884 885 885 885 885 885 885 885 884 884 883 883 882 881 881 880 879 878 877 875 874 872 870 868 867 864 862 859 856 854 851 849 847 845 843 840 838 835 833 831 828 824 821 818 814 811 807 803 800 796 791 787 782 778 774 771 766 762 758 754 751 748 745 742 740 737 735 732 730 727 725 723 721
872 874 875 876 877 879 879 880 881 881 882 883 883 884 884 884 885 885 884 884 884 883 883 882 882 881 880 879 878 878 876 875 874 872 870 868 867 864 862 859 857 855 853 851 849 847 845 842 840 837 835 833 830 827 824 820 817 814 810 807 803 800 795 791 787 783 779 775 771 767 764 759 756 753 751 748 746 744 742 739 737 734 732 730 729
871 873 874 875 876 877 878 879 880 880 881 882 882 883 883 883 884 884 884 883 883 883 882 882 881 880 879 878 878 877 876 874 873 872 870 869 867 864 862 860 858 856 855 853 851 849 847 844 842 840 837 835 832 829 827 823 820 817 814 810 807 803 799 796 792 787 783 780 776 773 769 765 762 759 756 754 752 750 748 746 744 741 739 738 737
870 871 873 874 875 876 877 878 878 879 880 881 881 882 882 882 883 883 883 882 882 882 881 881 880 879 878 877 877 876 875 874 873 871 870 868 866 865 863 861 860 858 856 854 852 850 848 846 844 841 839 837 834 832 829 826 823 820 817 813 810 807 803 800 796 791 787 784 780 777 774 771 768 765 763 761 759 757 755 753 751 748 747 745 744
869 870 871 873 874 875 876 876 877 878 879 879 880 880 881 881 881 881 881 881 881 880 880 879 879 878 877 877 876 875 874 873 872 871 870 868 866 865 864 862 860 859 857 855 853 852 850 848 846 843 841 839 836 834 831 828 825 822 819 816 813 810 806 803 799 795 792 788 785 782 779 776 774 771 769 767 765 763 761 759 757 755 754 752 751
868 869 870 871 872 873 874 875 875 876 877 878 878 879 879 880 880 880 880 880 879 879 879 878 878 877 876 875 875 874 873 872 871 870 869 868 867 865 864 862 861 859 858 856 854 852 851 849 847 845 843 841 838 836 833 830 827 824 822 819 816 813 810 807 803 800 797 794 790 787 784 782 779 777 775 773 771 769 767 766 764 762 761 760 758
867 868 869 870 871 872 872 873 874 874 875 876 876 877 877 878 878 878 879 878 878 878 877 877 876 875 875 874 874 873 872 872 871 870 869 867 866 865 864 863 861 860 858 857 855 853 852 850 848 846 844 842 840 837 835 832 829 826 824 821 819 816 813 810 808 804 801 798 795 792 789 787 784 782 780 778 776 775 773 771 770 769 767 766 765
865 866 867 868 869 870 871 871 872 872 873 873 874 875 875 876 876 877 877 877 877 876 876 875 875 874 873 873 872 872 871 871 870 869 868 867 866 865 864 863 862 860 859 857 856 854 852 850 848 847 845 843 841 839 836 834 831 828 826 824 821 819 816 814 811 808 805 802 799 796 793 791 789 787 785 782 781 780 778 776 775 774 772 772 771
864 864 865 866 867 868 869 869 870 870 871 871 872 873 873 874 874 875 875 875 875 875 874 874 873 873 872 872 871 870 870 870 869 868 867 866 866 865 863 862 861 860 859 858 856 854 853 851 849 847 845 844 842 840 837 835 832 830 828 826 823 821 819 816 814 811 808 806 803 800 797 795 793 791 789 787 785 784 782 781 780 779 778 777 776
861 862 863 864 865 866 867 867 868 869 869 870 870 871 871 872 872 873 873 873 873 873 873 873 872 871 871 870 870 869 869 868 868 867 866 866 865 864 863 862 861 860 859 858 856 855 853 851 850 848 846 844 843 841 839 837 834 832 830 828 826 823 821 819 817 814 811 809 806 803 801 799 796 795 793 791 789 788 787 785 784 783 782 782 781
859 861 862 862 863 864 865 865 866 867 867 868 868 869 869 870 870 870 871 871 871 871 871 871 871 870 870 869 869 868 868 867 866 866 865 865 864 863 862 861 860 859 858 857 856 855 853 852 850 849 847 845 844 842 840 838 836 833 832 830 827 826 823 821 819 817 814 812 809 807 805 803 800 798 796 794 793 792 790 789 788 787 786 786 785
857 858 859 860 861 862 863 863 864 864 865 866 866 866 867 867 867 868 868 868 869 869 869 869 869 868 868 868 867 867 866 866 865 865 864 863 863 862 861 861 860 859 858 857 856 855 853 852 850 849 847 846 844 842 841 839 837 835 833 831 829 827 826 824 822 820 817 815 812 810 808 806 804 802 800 798 797 796 794 793 792 791 790 790 789
855 856 857 858 859 860 861 861 862 862 863 864 864 864 865 865 865 866 866 866 866 867 867 867 867 866 866 866 866 865 865 864 864 863 863 862 862 861 860 860 859 858 857 856 855 854 853 852 850 849 848 846 845 843 842 840 838 836 835 833 831 829 828 826 824 822 820 818 815 813 811 809 808 806 804 802 801 799 798 797 796 795 794 793 793
852 853 854 856 856 857 858 859 859 860 861 861 861 862 862 862 863 863 864 864 864 864 864 864 864 864 864 864 864 863 863 863 862 862 861 861 860 860 859 859 858 857 856 856 855 853 852 851 850 849 848 846 845 844 842 841 839 838 836 834 832 831 829 827 825 824 822 820 818 816 814 812 811 809 807 806 804 803 801 800 799 798 797 797 796
850 851 852 853 854 855 856 856 857 857 858 858 859 859 860 860 861 861 861 861 862 862 862 862 862 862 861 861 861 861 861 861 860 860 860 859 859 858 857 857 857 856 855 855 854 853 852 851 850 849 847 846 845 844 842 841 840 838 837 835 833 832 830 828 827 825 823 822 820 818 817 815 814 812 811 809 807 806 805 803 802 801 801 800 799
848 849 849 850 851 852 852 853 854 854 855 855 856 856 857 857 858 858 858 859 859 859 859 859 859 859 859 859 859 859 859 858 858 858 858 857 857 856 856 855 855 854 854 853 853 852 851 850 849 848 847 846 845 844 843 841 840 839 837 836 834 832 831 829 828 826 825 823 822 820 819 817 816 815 813 812 810 809 808 806 805 804 803 802 802
845 846 846 847 848 849 849 850 851 851 852 852 853 853 854 854 855 855 855 856 856 856 856 856 856 856 856 856 856 856 856 856 856 855 855 855 855 854 854 853 853 852 852 852 851 850 850 849 848 847 846 845 845 843 842 841 840 839 838 836 834 833 831 830 829 827 826 824 823 821 820 819 818 816 815 814 813 812 810 809 808 807 806 805 805
841 842 843 844 845 846 846 847 848 848 849 849 850 850 851 851 851 852 852 852 852 853 853 853 853 853 853 853 853 853 853 853 853 853 853 853 852 852 852 851 851 850 850 850 849 849 848 847 847 846 845 845 844 843 842 841 840 839 838 836 835 833 832 830 829 828 826 825 824 823 821 820 819 818 817 816 815 814 813 811 810 809 809 808 807